OE3WYC-1 Weather Reports


time (UTC)temp
F
wind
direction
speed
knots
gust
knots
rain 1hr
in
rain 24hr
in
rain mn
in
humidity
%
barometer
mb
20260506000006 61 0 0.0 0.0 0.00 0.00 0.00 61 1005.7
20260505235506 61 0 0.0 0.0 0.00 0.00 0.00 61 1005.6
20260505235006 61 0 0.0 0.0 0.00 0.00 0.00 61 1005.5
20260505234506 61 0 0.0 0.0 0.00 0.00 0.00 61 1005.4
20260505234006 61 0 0.0 0.0 0.00 0.00 0.00 61 1005.4
20260505233507 61 0 0.0 0.0 0.00 0.00 0.00 60 1005.4
20260505233006 61 0 0.0 0.0 0.00 0.00 0.00 60 1005.4
20260505232506 61 0 0.0 0.0 0.00 0.00 0.00 60 1005.4
20260505232008 62 0 0.0 0.0 0.00 0.00 0.00 60 1005.3
20260505231506 62 0 0.0 0.0 0.00 0.00 0.00 60 1005.3
20260505231006 62 0 0.0 0.0 0.00 0.00 0.00 59 1005.3
20260505230506 62 0 0.0 0.0 0.00 0.00 0.00 59 1005.3
20260505230007 62 0 0.0 0.0 0.00 0.00 0.00 59 1005.3
20260505225507 62 0 0.0 0.0 0.00 0.00 0.00 59 1005.2
20260505225006 62 0 0.0 0.0 0.00 0.00 0.00 58 1005.1
20260505224506 62 0 0.0 0.0 0.00 0.00 0.00 59 1005.0
20260505224007 62 0 0.0 0.0 0.00 0.00 0.00 58 1004.8
20260505223506 62 203 0.0 3.5 0.00 0.00 0.00 58 1004.8
20260505222506 62 203 3.5 3.5 0.00 0.00 0.00 58 1004.7
20260505222006 62 0 0.0 0.0 0.00 0.00 0.00 57 1004.5
20260505221506 63 0 0.0 0.0 0.00 0.00 0.00 57 1004.3
20260505221006 63 0 0.0 0.0 0.00 0.00 0.00 57 1004.4
20260505220007 63 0 0.0 0.0 0.00 0.00 0.00 57 1004.5
20260505215506 63 0 0.0 0.0 0.00 0.00 0.00 56 1004.4
20260505214507 64 0 0.0 0.0 0.00 0.00 0.00 56 1004.2
20260505214006 64 0 0.0 0.0 0.00 0.00 0.00 56 1004.2
20260505213506 64 0 0.0 0.0 0.00 0.00 0.00 56 1004.2
20260505213006 64 0 0.0 0.0 0.00 0.00 0.00 55 1004.3
20260505212506 64 0 0.0 0.0 0.00 0.00 0.00 55 1004.2
20260505212008 64 0 0.0 0.0 0.00 0.00 0.00 55 1004.1
20260505211506 64 0 0.0 0.0 0.00 0.00 0.00 55 1004.2
20260505211007 65 203 0.0 5.2 0.00 0.00 0.00 55 1004.2
20260505210506 65 208 0.0 5.2 0.00 0.00 0.00 54 1004.2
20260505210006 65 208 0.0 6.1 0.00 0.00 0.00 54 1004.0
20260505205507 65 199 0.0 6.1 0.00 0.00 0.00 54 1003.8
20260505205006 65 199 0.0 6.1 0.00 0.00 0.00 54 1003.7
20260505204506 65 203 0.0 6.1 0.00 0.00 0.00 54 1003.6
20260505203506 65 190 0.0 4.3 0.00 0.00 0.00 53 1003.5
20260505203007 65 209 0.0 4.3 0.00 0.00 0.00 53 1003.5
20260505202506 65 213 0.0 4.3 0.00 0.00 0.00 53 1003.2
20260505202007 66 194 0.0 2.6 0.00 0.00 0.00 53 1003.3
20260505201510 66 194 0.0 5.2 0.00 0.00 0.00 53 1003.3
20260505201006 66 203 0.0 7.0 0.00 0.00 0.00 52 1003.2
20260505200506 66 200 0.0 7.0 0.00 0.00 0.00 52 1003.3
20260505195506 66 181 0.0 3.5 0.00 0.00 0.00 52 1003.1
20260505195006 66 199 0.0 6.1 0.00 0.00 0.00 51 1003.3
20260505194008 67 215 0.0 11.3 0.00 0.00 0.00 51 1003.2
20260505193506 67 203 3.5 10.4 0.00 0.00 0.00 51 1003.1
20260505192506 67 195 5.2 5.2 0.00 0.00 0.00 50 1003.2
20260505191506 67 193 0.0 6.1 0.00 0.00 0.00 49 1003.2
20260505191006 68 195 0.0 5.2 0.00 0.00 0.00 49 1003.0
20260505190506 68 191 0.0 6.1 0.00 0.00 0.00 49 1003.2
20260505190007 68 193 0.0 6.1 0.00 0.00 0.00 48 1003.2
20260505185506 68 197 0.0 7.0 0.00 0.00 0.00 48 1003.3
20260505185006 68 196 0.0 7.0 0.00 0.00 0.00 48 1003.3
20260505184006 69 194 0.0 13.0 0.00 0.00 0.00 47 1003.4
20260505182007 70 186 0.0 8.7 0.00 0.00 0.00 45 1003.1
20260505181506 70 190 8.7 9.6 0.00 0.00 0.00 45 1003.0
20260505181006 70 197 0.0 9.6 0.00 0.00 0.00 45 1003.0
20260505180506 71 208 0.0 5.2 0.00 0.00 0.00 44 1003.0
20260505180006 71 213 0.0 5.2 0.00 0.00 0.00 44 1003.1
20260505175006 71 198 0.0 11.3 0.00 0.00 0.00 44 1003.2
20260505174508 72 191 2.6 11.3 0.00 0.00 0.00 43 1003.0
20260505174006 72 192 5.2 11.3 0.00 0.00 0.00 43 1003.0
20260505173507 72 196 3.5 7.8 0.00 0.00 0.00 43 1003.3
20260505173007 72 209 0.0 9.6 0.00 0.00 0.00 43 1003.1
20260505172507 73 202 0.0 9.6 0.00 0.00 0.00 43 1003.1
20260505172006 73 198 0.0 7.8 0.00 0.00 0.00 43 1003.0
20260505171507 73 202 4.3 13.0 0.00 0.00 0.00 43 1003.1
20260505171006 73 202 8.7 13.0 0.00 0.00 0.00 43 1003.0
20260505170507 73 200 2.6 10.4 0.00 0.00 0.00 43 1003.2
20260505170006 73 197 0.0 7.8 0.00 0.00 0.00 43 1003.2
20260505165507 73 188 0.0 7.0 0.00 0.00 0.00 43 1003.2
20260505165006 73 193 0.0 7.8 0.00 0.00 0.00 43 1003.2
20260505164507 74 194 0.0 10.4 0.00 0.00 0.00 42 1003.3
20260505164006 74 195 5.2 10.4 0.00 0.00 0.00 42 1003.3
20260505163507 74 194 0.0 10.4 0.00 0.00 0.00 42 1003.2
20260505163008 74 194 0.0 7.8 0.00 0.00 0.00 42 1003.4
20260505162506 74 187 0.0 7.8 0.00 0.00 0.00 42 1003.3
20260505160506 75 207 0.0 5.2 0.00 0.00 0.00 41 1003.4
20260505153007 77 0 0.0 0.0 0.00 0.00 0.00 39 1003.6
20260505152506 77 0 0.0 0.0 0.00 0.00 0.00 38 1003.6
20260505152007 77 186 0.0 15.6 0.00 0.00 0.00 38 1003.7
20260505151506 78 194 0.0 15.6 0.00 0.00 0.00 37 1003.6
20260505151007 78 193 4.3 18.2 0.00 0.00 0.00 37 1003.8
20260505150505 79 191 4.3 18.2 0.00 0.00 0.00 36 1003.7
20260505124506 82 185 5.2 9.6 0.00 0.00 0.00 30 1004.9
20260505124006 82 197 7.0 7.0 0.00 0.00 0.00 31 1005.0
20260505123006 82 203 0.0 10.4 0.00 0.00 0.00 30 1005.1
20260505122505 82 197 5.2 7.0 0.00 0.00 0.00 30 1005.1
20260505122006 82 200 3.5 7.8 0.00 0.00 0.00 31 1005.1
20260505121508 82 196 2.6 10.4 0.00 0.00 0.00 30 1005.3
20260505121006 82 188 0.0 10.4 0.00 0.00 0.00 30 1005.4
20260505120506 82 185 0.0 8.7 0.00 0.00 0.00 30 1005.4
20260505120006 82 183 0.0 8.7 0.00 0.00 0.00 31 1005.5
20260505115507 82 203 0.0 7.0 0.00 0.00 0.00 33 1005.6
20260505115006 81 201 0.0 7.0 0.00 0.00 0.00 33 1005.5
20260505114506 81 194 2.6 13.0 0.00 0.00 0.00 34 1005.5
20260505114006 81 195 0.0 13.0 0.00 0.00 0.00 35 1005.6
20260505113006 80 201 0.0 5.2 0.00 0.00 0.00 38 1005.7
20260505112506 80 164 0.0 5.2 0.00 0.00 0.00 38 1005.9
20260505112006 79 120 0.0 4.3 0.00 0.00 0.00 40 1005.8
20260505111506 79 0 0.0 0.0 0.00 0.00 0.00 40 1005.9
20260505111006 79 199 0.0 5.2 0.00 0.00 0.00 40 1006.0
20260505102006 76 0 0.0 0.0 0.00 0.00 0.00 46 1006.8
20260505101507 75 0 0.0 0.0 0.00 0.00 0.00 46 1006.9
20260505101006 75 0 0.0 0.0 0.00 0.00 0.00 47 1007.0
20260505100505 74 203 0.0 5.2 0.00 0.00 0.00 48 1007.1
20260505095507 74 203 0.0 1.7 0.00 0.00 0.00 48 1006.9
20260505094006 73 220 0.0 4.3 0.00 0.00 0.00 49 1007.3
20260505093508 73 203 0.0 4.3 0.00 0.00 0.00 50 1007.6
20260505093006 73 203 0.0 4.3 0.00 0.00 0.00 51 1007.7
20260505092506 72 0 0.0 0.0 0.00 0.00 0.00 51 1007.8
20260505092005 72 0 0.0 0.0 0.00 0.00 0.00 52 1007.9
20260505091507 71 0 0.0 0.0 0.00 0.00 0.00 52 1008.0
20260505091006 71 0 0.0 0.0 0.00 0.00 0.00 53 1007.8
20260505090506 70 0 0.0 0.0 0.00 0.00 0.00 54 1008.0
20260505090006 70 0 0.0 0.0 0.00 0.00 0.00 54 1008.1
20260505085507 69 0 0.0 0.0 0.00 0.00 0.00 54 1008.2
20260505085006 69 0 0.0 0.0 0.00 0.00 0.00 54 1008.2
20260505084506 68 0 0.0 0.0 0.00 0.00 0.00 55 1008.1
20260505084006 68 0 0.0 0.0 0.00 0.00 0.00 55 1008.2
20260505083507 68 0 0.0 0.0 0.00 0.00 0.00 55 1008.4
20260505083005 67 0 0.0 0.0 0.00 0.00 0.00 56 1008.4
20260505082506 67 0 0.0 0.0 0.00 0.00 0.00 57 1008.4
20260505082006 66 203 0.0 4.3 0.00 0.00 0.00 57 1008.4
20260505081508 66 203 0.0 4.3 0.00 0.00 0.00 58 1008.4
20260505081006 66 0 0.0 0.0 0.00 0.00 0.00 59 1008.4
20260505080506 65 203 0.0 3.5 0.00 0.00 0.00 60 1008.4
20260505080005 65 203 0.0 3.5 0.00 0.00 0.00 59 1008.5
20260505075507 65 0 0.0 0.0 0.00 0.00 0.00 60 1008.5
20260505075005 65 203 0.0 1.7 0.00 0.00 0.00 60 1008.6
20260505074506 64 203 0.0 1.7 0.00 0.00 0.00 61 1008.5
20260505074006 64 0 0.0 0.0 0.00 0.00 0.00 62 1008.5
20260505073508 63 0 0.0 0.0 0.00 0.00 0.00 63 1008.5
20260505073006 63 0 0.0 0.0 0.00 0.00 0.00 63 1008.5
20260505072505 63 0 0.0 0.0 0.00 0.00 0.00 63 1008.5
20260505071508 62 0 0.0 0.0 0.00 0.00 0.00 63 1008.6
20260505070506 62 0 0.0 0.0 0.00 0.00 0.00 64 1008.8
20260505070005 61 0 0.0 0.0 0.00 0.00 0.00 64 1008.8
20260505065507 61 0 0.0 0.0 0.00 0.00 0.00 64 1008.6
20260505065006 61 0 0.0 0.0 0.00 0.00 0.00 65 1008.6
20260505064506 61 0 0.0 0.0 0.00 0.00 0.00 65 1008.5
20260505064006 60 0 0.0 0.0 0.00 0.00 0.00 66 1008.5
20260505063507 60 0 0.0 0.0 0.00 0.00 0.00 66 1008.5
20260505063006 60 0 0.0 0.0 0.00 0.00 0.00 66 1008.5
20260505062505 59 0 0.0 0.0 0.00 0.00 0.00 66 1008.5
20260505062006 59 0 0.0 0.0 0.00 0.00 0.00 66 1008.5
20260505061005 59 0 0.0 0.0 0.00 0.00 0.00 67 1008.5
20260505060506 58 0 0.0 0.0 0.00 0.00 0.00 68 1008.4
20260505060006 58 203 0.0 5.2 0.00 0.00 0.00 68 1008.4
20260505055507 57 203 0.0 5.2 0.00 0.00 0.00 68 1008.5
20260505055005 57 0 0.0 0.0 0.00 0.00 0.00 69 1008.4
20260505054506 56 0 0.0 0.0 0.00 0.00 0.00 69 1008.5
20260505054006 56 0 0.0 0.0 0.00 0.00 0.00 69 1008.5
20260505053507 56 0 0.0 0.0 0.00 0.00 0.00 69 1008.4
20260505053006 55 0 0.0 0.0 0.00 0.00 0.00 69 1008.6
20260505052506 55 0 0.0 0.0 0.00 0.00 0.00 69 1008.6
20260505052005 55 0 0.0 0.0 0.00 0.00 0.00 70 1008.5
20260505051506 55 0 0.0 0.0 0.00 0.00 0.00 70 1008.6
20260505051007 54 0 0.0 0.0 0.00 0.00 0.00 70 1008.5
20260505050506 54 0 0.0 0.0 0.00 0.00 0.00 70 1008.5
20260505041506 54 0 0.0 0.0 0.00 0.00 0.00 66 1008.2
20260505041006 54 0 0.0 0.0 0.00 0.00 0.00 66 1008.2
20260505040507 54 0 0.0 0.0 0.00 0.00 0.00 67 1008.4
20260505035006 54 0 0.0 0.0 0.00 0.00 0.00 67 1008.4
20260505034506 54 0 0.0 0.0 0.00 0.00 0.00 67 1008.5
20260505034007 54 0 0.0 0.0 0.00 0.00 0.00 66 1008.4
20260505033505 55 0 0.0 0.0 0.00 0.00 0.00 66 1008.4
20260505033006 55 0 0.0 0.0 0.00 0.00 0.00 65 1008.2
20260505032007 55 0 0.0 0.0 0.00 0.00 0.00 66 1008.4
20260505031006 55 0 0.0 0.0 0.00 0.00 0.00 65 1008.4
20260505030506 55 0 0.0 0.0 0.00 0.00 0.00 65 1008.3
20260505030007 55 0 0.0 0.0 0.00 0.00 0.00 64 1008.4
20260505025006 55 0 0.0 0.0 0.00 0.00 0.00 64 1008.3
20260505024006 56 0 0.0 0.0 0.00 0.00 0.00 63 1008.4
20260505023507 56 0 0.0 0.0 0.00 0.00 0.00 63 1008.4
20260505022505 56 0 0.0 0.0 0.00 0.00 0.00 63 1008.5
20260505021507 56 0 0.0 0.0 0.00 0.00 0.00 64 1008.5
20260505015506 56 0 0.0 0.0 0.00 0.00 0.00 63 1008.6
20260505015006 56 0 0.0 0.0 0.00 0.00 0.00 62 1008.5
20260505014506 56 0 0.0 0.0 0.00 0.00 0.00 62 1008.5
20260505014005 56 0 0.0 0.0 0.00 0.00 0.00 62 1008.6
20260505013506 56 0 0.0 0.0 0.00 0.00 0.00 61 1008.6
20260505012506 56 0 0.0 0.0 0.00 0.00 0.00 61 1008.6
20260505012005 56 0 0.0 0.0 0.00 0.00 0.00 61 1008.5
20260505011006 57 0 0.0 0.0 0.00 0.00 0.00 60 1008.6
20260505010507 57 0 0.0 0.0 0.00 0.00 0.00 59 1008.8
20260505010006 57 0 0.0 0.0 0.00 0.00 0.00 59 1008.6
20260505005506 58 0 0.0 0.0 0.00 0.00 0.00 59 1008.6
20260505005005 58 0 0.0 0.0 0.00 0.00 0.00 58 1008.8
20260505004505 58 0 0.0 0.0 0.00 0.00 0.00 58 1008.6
20260505004006 58 0 0.0 0.0 0.00 0.00 0.00 58 1008.7
20260505003006 59 0 0.0 0.0 0.00 0.00 0.00 57 1008.8
20260505002506 59 0 0.0 0.0 0.00 0.00 0.00 57 1008.8
20260505002006 59 0 0.0 0.0 0.00 0.00 0.00 56 1008.9
20260505001507 59 0 0.0 0.0 0.00 0.00 0.00 55 1008.8
20260505001006 60 0 0.0 0.0 0.00 0.00 0.00 55 1008.8
20260505000505 60 0 0.0 0.0 0.00 0.00 0.00 55 1009.0